Location: Wildlife_Club
(35.6000°N, 81.4330°W)
Time: 17:11:58
(UTC-04:00)

Amateur Radio Satellites - All Passes

Search period start: 20 October 2014 16:41
Search period end: 21 October 2014 16:41
Location: Wildlife_Club, 35.6000°N, 81.4330°W

Satellite Date Start Highest point End Downlink Frequencies (MHz)
Time Altitude Azimuth
Sapphire 20 Oct 16:49:32 16:51:47 13° 257° (WSW) 16:54:02 437.095 MHz 1200 baud AX-25 AFSK
AO-7 20 Oct 17:29:36 17:37:39 55° 257° (WSW) 17:45:45 29.400 - 29.500 MHz
UOSAT-12 20 Oct 17:31:55 17:35:31 22° 310° (NW) 17:39:11 437.025 FM, 437.400 FM
Hamsat 20 Oct 17:39:18 17:42:23 20° 69° (ENE) 17:45:27 145.90 MHz
OPAL 20 Oct 17:57:57 18:02:12 28° 99° (E) 18:06:25 ?
Saudisat 1A 20 Oct 17:58:35 18:02:36 32° 54° (NE) 18:06:34 436.775 MHz
Uosat F 20 Oct 18:09:54 18:13:40 21° 265° (W) 18:17:28 435.120 FM
JAS-2 20 Oct 18:10:29 18:16:03 75° 74° (ENE) 18:22:23 435.800 - 435.900 CW/SSB, 435.910 FM
SO-67 20 Oct 19:02:29 19:04:51 18° 71° (ENE) 19:07:14 435.3500 MHz FM
Hamsat 20 Oct 19:14:28 19:18:08 28° 263° (W) 19:21:47 145.90 MHz
STRAND 1 20 Oct 19:34:30 19:38:58 29° 97° (E) 19:43:24 ?
OPAL 20 Oct 19:36:47 19:40:59 28° 293° (WNW) 19:45:09 ?
Saudisat 1A 20 Oct 19:38:34 19:41:57 22° 249° (WSW) 19:45:19 436.775 MHz
HO-68 20 Oct 19:39:12 19:40:38 11° 53° (NE) 19:42:03 435.675 MHz FM
JAS-2 20 Oct 19:59:52 20:02:01 12° 273° (W) 20:04:14 435.800 - 435.900 CW/SSB, 435.910 FM
SO-67 20 Oct 20:35:08 20:37:41 20° 265° (W) 20:40:16 435.3500 MHz FM
STRAND 1 20 Oct 21:13:40 21:18:02 29° 291° (WNW) 21:22:23 ?
Oscar 11 20 Oct 21:14:53 21:16:42 13° 66° (ENE) 21:18:31 145.825 FM, Beacon 2401.500 USB
HO-68 20 Oct 21:19:55 21:26:58 67° 71° (ENE) 21:34:05 435.675 MHz FM
ISS 20 Oct 21:20:08 21:23:04 28° 34° (NE) 21:26:00 145.800 FM
KITSAT 1 20 Oct 21:26:28 21:32:18 21° 43° (NE) 21:38:06 435.175 FM
AO-40 20 Oct 21:42:06 23:38:59 33° 217° (SW) 03:55:29 Beacon 2401.320
ZACube-1 20 Oct 21:50:23 21:52:48 14° 66° (ENE) 21:55:12 437.345 MHz
RS-15 20 Oct 21:51:25 21:59:08 22° 102° (ESE) 22:06:44 29.354 - 29.394 USB, Beacon 29.352 USB
UKube-1 20 Oct 22:02:24 22:06:37 53° 74° (ENE) 22:10:52 145.840 MHz, 145.915 MHz
FUNcube-1 20 Oct 22:34:02 22:38:23 42° 73° (ENE) 22:42:42 145.950 - 145.970 MHz USB
SO-50 20 Oct 22:35:46 22:38:57 17° 47° (NE) 22:42:09 436.795 FM
Oscar 11 20 Oct 22:48:12 22:52:24 51° 260° (W) 22:56:38 145.825 FM, Beacon 2401.500 USB
ISS 20 Oct 22:56:54 22:59:42 25° 229° (SW) 23:02:29 145.800 FM
HO-68 20 Oct 23:10:13 23:15:08 20° 267° (W) 23:20:05 435.675 MHz FM
KITSAT 1 20 Oct 23:20:38 23:28:45 89° 244° (WSW) 23:36:49 435.175 FM
ZACube-1 20 Oct 23:24:15 23:28:44 51° 260° (W) 23:33:13 437.345 MHz
UKube-1 20 Oct 23:41:48 23:43:05 11° 268° (W) 23:44:22 145.840 MHz, 145.915 MHz
RS-15 20 Oct 23:59:05 00:10:09 81° 300° (WNW) 00:21:07 29.354 - 29.394 USB, Beacon 29.352 USB
MaSat-1 21 Oct 00:09:10 00:11:14 13° 104° (ESE) 00:13:16 437.345 MHz
FUNcube-1 21 Oct 00:12:05 00:14:53 16° 267° (W) 00:17:41 145.950 - 145.970 MHz USB
SO-50 21 Oct 00:15:06 00:19:53 59° 244° (WSW) 00:24:40 436.795 FM
UOSAT-12 21 Oct 00:24:04 00:27:16 18° 48° (NE) 00:30:25 437.025 FM, 437.400 FM
KITSAT 1 21 Oct 01:18:56 01:23:00 15° 260° (W) 01:27:04 435.175 FM
MaSat-1 21 Oct 01:42:33 01:46:44 45° 295° (WNW) 01:50:34 437.345 MHz
Oscar 19 21 Oct 01:46:25 01:48:53 14° 92° (E) 01:51:21 437.125 CW, 437.150 USB
UOSAT-12 21 Oct 02:03:09 02:07:43 52° 245° (WSW) 02:12:11 437.025 FM, 437.400 FM
RS-15 21 Oct 02:16:12 02:24:26 24° 325° (NW) 02:32:44 29.354 - 29.394 USB, Beacon 29.352 USB
JAS-1B 21 Oct 02:29:04 02:35:13 37° 100° (E) 02:42:23 435.800 - 435.900 CW/SSB
Oscar 16 21 Oct 02:29:28 02:34:16 40° 99° (E) 02:39:03 437.025 USB, Beacon 2401.1428
Uribyol 2 21 Oct 02:41:51 02:45:46 21° 95° (E) 02:49:39 436.500 FM
ITAMSAT 1 21 Oct 02:46:39 02:50:41 22° 95° (E) 02:54:41 435.822 SSB
AO-Echo 21 Oct 02:59:30 03:04:30 41° 98° (E) 03:09:30 ?
Oscar 19 21 Oct 03:23:32 03:28:34 59° 286° (WNW) 03:33:34 437.125 CW, 437.150 USB
AO-27 21 Oct 03:30:11 03:35:24 63° 102° (ESE) 03:40:33 436.795 MHz FM
Sapphire 21 Oct 04:02:24 04:04:53 13° 103° (ESE) 04:07:23 437.095 MHz 1200 baud AX-25 AFSK
Oscar 16 21 Oct 04:09:33 04:13:19 21° 293° (WNW) 04:17:04 437.025 USB, Beacon 2401.1428
Gurwin Techsat 1B 21 Oct 04:19:34 04:24:54 85° 284° (WNW) 04:30:13 435.225 FM
JAS-1B 21 Oct 04:19:55 04:25:44 35° 290° (WNW) 04:32:28 435.800 - 435.900 CW/SSB
Uribyol 2 21 Oct 04:20:30 04:25:20 39° 289° (WNW) 04:30:07 436.500 FM
PCSat 21 Oct 04:23:23 04:27:40 25° 107° (ESE) 04:31:59 145.825 MHz
ITAMSAT 1 21 Oct 04:25:26 04:30:14 38° 290° (WNW) 04:35:00 435.822 SSB
TMSAT-1 21 Oct 04:33:38 04:38:58 85° 284° (WNW) 04:44:16 436.925 FM
AO-Echo 21 Oct 04:38:57 04:42:56 22° 293° (WNW) 04:46:57 ?
RS-15 21 Oct 04:39:11 04:42:59 12° 2° (N) 04:46:49 29.354 - 29.394 USB, Beacon 29.352 USB
Uosat F 21 Oct 04:42:23 04:45:04 14° 93° (E) 04:47:44 435.120 FM
OPAL 21 Oct 05:09:45 05:14:30 38° 69° (ENE) 05:19:14 ?
AO-27 21 Oct 05:11:34 05:14:19 15° 297° (WNW) 05:17:03 436.795 MHz FM
JAS-2 21 Oct 05:24:11 05:28:29 16° 89° (E) 05:32:47 435.800 - 435.900 CW/SSB, 435.910 FM
AO-7 21 Oct 05:34:10 05:42:25 63° 104° (ESE) 05:50:38 29.400 - 29.500 MHz
Sapphire 21 Oct 05:42:17 05:47:39 68° 298° (WNW) 05:53:04 437.095 MHz 1200 baud AX-25 AFSK
PCSat 21 Oct 06:05:47 06:10:49 39° 302° (WNW) 06:15:53 145.825 MHz
Uosat F 21 Oct 06:19:12 06:24:08 55° 287° (WNW) 06:29:02 435.120 FM
STRAND 1 21 Oct 06:47:38 06:52:07 32° 69° (ENE) 06:56:37 ?
OPAL 21 Oct 06:49:27 06:53:26 22° 263° (W) 06:57:24 ?
RS-15 21 Oct 06:52:20 07:01:16 27° 38° (NE) 07:10:24 29.354 - 29.394 USB, Beacon 29.352 USB
Hamsat 21 Oct 07:02:18 07:06:27 59° 100° (E) 07:10:35 145.90 MHz
JAS-2 21 Oct 07:06:24 07:14:11 90° 104° (ESE) 07:22:02 435.800 - 435.900 CW/SSB, 435.910 FM
AO-7 21 Oct 07:27:59 07:34:34 27° 301° (WNW) 07:41:10 29.400 - 29.500 MHz
SO-67 21 Oct 08:00:31 08:03:36 30° 97° (E) 08:06:39 435.3500 MHz FM
Saudisat 1A 21 Oct 08:03:31 08:06:16 16° 109° (ESE) 08:09:01 436.775 MHz
STRAND 1 21 Oct 08:27:02 08:31:15 26° 264° (W) 08:35:31 ?
JAS-2 21 Oct 08:53:27 08:58:12 18° 300° (WNW) 09:03:02 435.800 - 435.900 CW/SSB, 435.910 FM
HO-68 21 Oct 08:53:58 08:57:02 13° 91° (E) 09:00:05 435.675 MHz FM
RS-15 21 Oct 09:03:59 09:15:16 89° 62° (ENE) 09:27:03 29.354 - 29.394 USB, Beacon 29.352 USB
PANSAT 21 Oct 09:27:33 09:29:56 16° 163° (SSE) 09:32:19 not established
SO-67 21 Oct 09:34:52 09:36:15 12° 291° (WNW) 09:37:38 435.3500 MHz FM
Saudisat 1A 21 Oct 09:41:19 09:45:28 41° 304° (NW) 09:49:39 436.775 MHz
UKube-1 21 Oct 09:55:57 09:57:18 11° 92° (E) 09:58:39 145.840 MHz, 145.915 MHz
HO-68 21 Oct 10:38:16 10:45:30 90° 105° (ESE) 10:52:41 435.675 MHz FM
Oscar 11 21 Oct 10:38:52 10:42:48 34° 98° (E) 10:46:42 145.825 FM, Beacon 2401.500 USB
PANSAT 21 Oct 11:06:18 11:09:34 27° 176° (S) 11:12:50 not established
ZACube-1 21 Oct 11:16:49 11:20:48 37° 98° (E) 11:24:41 437.345 MHz
RS-15 21 Oct 11:18:49 11:26:13 20° 259° (W) 11:33:50 29.354 - 29.394 USB, Beacon 29.352 USB
UKube-1 21 Oct 11:29:30 11:33:45 53° 286° (WNW) 11:37:59 145.840 MHz, 145.915 MHz
MaSat-1 21 Oct 11:32:42 11:35:00 29° 252° (WSW) 11:37:09 437.345 MHz
KITSAT 1 21 Oct 11:53:57 11:58:38 17° 101° (ESE) 12:03:19 435.175 FM
FUNcube-1 21 Oct 12:02:24 12:06:36 59° 285° (WNW) 12:10:43 145.950 - 145.970 MHz USB
Oscar 11 21 Oct 12:15:51 12:18:41 18° 292° (WNW) 12:21:32 145.825 FM, Beacon 2401.500 USB
HO-68 21 Oct 12:28:16 12:32:12 16° 303° (WNW) 12:36:08 435.675 MHz FM
PANSAT 21 Oct 12:46:09 12:49:17 24° 189° (S) 12:52:25 not established
ZACube-1 21 Oct 12:54:18 12:56:51 16° 293° (WNW) 12:59:21 437.345 MHz
Oscar 19 21 Oct 13:00:33 13:03:37 16° 65° (ENE) 13:06:41 437.125 CW, 437.150 USB
JAS-1B 21 Oct 13:14:18 13:18:35 20° 66° (ENE) 13:22:38 435.800 - 435.900 CW/SSB
PCSat 21 Oct 13:15:07 13:17:27 13° 46° (NE) 13:19:47 145.825 MHz
Oscar 16 21 Oct 13:43:29 13:48:21 44° 72° (ENE) 13:53:14 437.025 USB, Beacon 2401.1428
KITSAT 1 21 Oct 13:44:54 13:52:59 85° 297° (WNW) 14:01:07 435.175 FM
Uribyol 2 21 Oct 13:56:55 14:01:05 25° 67° (ENE) 14:05:16 436.500 FM
ISS 21 Oct 13:59:58 14:03:07 41° 133° (SE) 14:06:18 145.800 FM
Gurwin Techsat 1B 21 Oct 14:01:27 14:03:42 13° 62° (ENE) 14:05:57 435.225 FM
ITAMSAT 1 21 Oct 14:01:52 14:06:06 26° 68° (ENE) 14:10:21 435.822 SSB
AO-Echo 21 Oct 14:09:49 14:14:13 37° 71° (ENE) 14:18:45 ?
TMSAT-1 21 Oct 14:15:17 14:17:28 13° 62° (ENE) 14:19:38 436.925 FM
SO-50 21 Oct 14:27:00 14:31:28 87° 299° (WNW) 14:36:04 436.795 FM
PANSAT 21 Oct 14:27:31 14:28:51 12° 200° (SSW) 14:30:12 not established
Sapphire 21 Oct 14:33:17 14:38:34 51° 60° (ENE) 14:43:49 437.095 MHz 1200 baud AX-25 AFSK
Oscar 19 21 Oct 14:37:25 14:42:28 55° 259° (W) 14:47:31 437.125 CW, 437.150 USB
AO-7 21 Oct 14:43:38 14:46:36 12° 50° (NE) 14:49:34 29.400 - 29.500 MHz
AO-27 21 Oct 14:45:20 14:50:30 71° 75° (ENE) 14:55:42 436.795 MHz FM
PCSat 21 Oct 14:56:11 15:01:38 88° 64° (ENE) 15:07:02 145.825 MHz
JAS-1B 21 Oct 15:02:54 15:08:59 47° 259° (W) 15:14:31 435.800 - 435.900 CW/SSB
Oscar 16 21 Oct 15:24:16 15:27:51 19° 266° (W) 15:31:27 437.025 USB, Beacon 2401.1428
Uribyol 2 21 Oct 15:35:36 15:40:20 35° 262° (W) 15:45:06 436.500 FM
ISS 21 Oct 15:37:24 15:39:57 20° 329° (NNW) 15:42:30 145.800 FM
Gurwin Techsat 1B 21 Oct 15:37:41 15:42:58 73° 258° (WSW) 15:48:18 435.225 FM
Oscar 10/S400 21 Oct 15:38:13 15:56:32 58° 160° (SSE) 16:29:56 145.825 - 145.975 CW/USB, Beacon 145.810 USB
ITAMSAT 1 21 Oct 15:40:45 15:45:24 33° 262° (W) 15:50:06 435.822 SSB
KITSAT 1 21 Oct 15:44:03 15:49:35 20° 318° (NW) 15:55:08 435.175 FM
AO-Echo 21 Oct 15:49:34 15:53:05 20° 266° (W) 15:56:41 ?
TMSAT-1 21 Oct 15:51:24 15:56:41 74° 258° (WSW) 16:02:00 436.925 FM
Uosat F 21 Oct 15:53:08 15:56:03 16° 64° (ENE) 15:58:59 435.120 FM
UOSAT-12 21 Oct 16:11:00 16:15:37 86° 299° (WNW) 16:20:20 437.025 FM, 437.400 FM
SO-50 21 Oct 16:11:42 16:12:44 11° 318° (NW) 16:13:46 436.795 FM
Sapphire 21 Oct 16:17:53 16:21:32 19° 255° (WSW) 16:25:10 437.095 MHz 1200 baud AX-25 AFSK
AO-27 21 Oct 16:28:54 16:30:28 11° 269° (W) 16:32:01 436.795 MHz FM
